Location: Bad Salzschlirf
(50.3750°N, 9.3000°E)
Time: 06:25:45
(UTC+01:00)

ISS - Pass Details

Date: 10 November 2018
Orbit: 402 x 408 km, 51.6° (Epoch: 16 November)

Event Time Altitude Azimuth Distance (km) Brightness Sun altitude
Exits shadow 05:58:28 30° 263° (W) 762 -3.0 -14.4°
Maximum altitude 05:59:43 48° 206° (SSW) 540 -3.4 -14.2°
Drops below altitude 10° 06:02:53 10° 131° (SE) 1,460 -0.1 -13.7°
Sets 06:05:00 0° 125° (SE) 2,319 1.3 -13.4°
